Time,TemperatureF,DewpointF,PressureIn,WindDirection,WindDirectionDegrees,WindSpeedMPH,WindSpeedGustMPH,Humidity,HourlyPrecipIn,Conditions,Clouds,dailyrainin,SoftwareType,DateUTC
2013-02-22 00:00:00,15.0,-99.9,-100.00,North,-999,-999.0,-999.0,-999,-99.99,,,0.00,,2013-02-22 08:00:00,
2013-02-22 00:52:00,15.0,-99.9,-100.00,North,-999,-999.0,-999.0,-999,-99.99,,,0.00,,2013-02-22 08:52:00,
2013-02-22 01:00:00,16.0,-99.9,-100.00,North,-999,-999.0,-999.0,-999,-99.99,,,0.02,,2013-02-22 09:00:00,
2013-02-22 01:52:00,16.0,-99.9,-100.00,North,-999,-999.0,-999.0,-999,-99.99,,,0.02,,2013-02-22 09:52:00,
2013-02-22 02:00:00,18.0,-99.9,-100.00,North,-999,-999.0,-999.0,-999,-99.99,,,0.00,,2013-02-22 10:00:00,
2013-02-22 02:52:00,18.0,-99.9,-100.00,North,-999,-999.0,-999.0,-999,-99.99,,,0.00,,2013-02-22 10:52:00,
2013-02-22 03:00:00,17.0,-99.9,-100.00,North,-999,-999.0,-999.0,-999,-99.99,,,0.03,,2013-02-22 11:00:00,
2013-02-22 03:52:00,17.0,-99.9,-100.00,North,-999,-999.0,-999.0,-999,-99.99,,,0.03,,2013-02-22 11:52:00,
2013-02-22 04:00:00,18.0,-99.9,-100.00,North,-999,-999.0,-999.0,-999,-99.99,,,0.01,,2013-02-22 12:00:00,
2013-02-22 04:52:00,18.0,-99.9,-100.00,North,-999,-999.0,-999.0,-999,-99.99,,,0.01,,2013-02-22 12:52:00,
2013-02-22 05:00:00,16.0,-99.9,-100.00,North,-999,-999.0,-999.0,-999,-99.99,,,0.00,,2013-02-22 13:00:00,
2013-02-22 05:52:00,16.0,-99.9,-100.00,North,-999,-999.0,-999.0,-999,-99.99,,,0.00,,2013-02-22 13:52:00,
2013-02-22 06:00:00,15.0,-99.9,-100.00,North,-999,-999.0,-999.0,-999,-99.99,,,-99.99,,2013-02-22 14:00:00,
2013-02-22 06:53:00,15.0,-99.9,-100.00,North,-999,-999.0,-999.0,-999,-99.99,,,-99.99,,2013-02-22 14:53:00,
2013-02-22 07:00:00,16.0,-99.9,-100.00,North,-999,-999.0,-999.0,-999,-99.99,,,0.02,,2013-02-22 15:00:00,
2013-02-22 07:52:00,16.0,-99.9,-100.00,North,-999,-999.0,-999.0,-999,-99.99,,,0.02,,2013-02-22 15:52:00,
2013-02-22 09:00:00,29.0,-99.9,-100.00,North,-999,-999.0,-999.0,-999,-99.99,,,0.01,,2013-02-22 17:00:00,
2013-02-22 09:52:00,29.0,-99.9,-100.00,North,-999,-999.0,-999.0,-999,-99.99,,,0.01,,2013-02-22 17:52:00,
2013-02-22 10:00:00,35.0,-99.9,-100.00,North,-999,-999.0,-999.0,-999,-99.99,,,0.00,,2013-02-22 18:00:00,
2013-02-22 10:52:00,35.0,-99.9,-100.00,North,-999,-999.0,-999.0,-999,-99.99,,,0.00,,2013-02-22 18:52:00,
2013-02-22 11:00:00,33.0,-99.9,-100.00,North,-999,-999.0,-999.0,-999,-99.99,,,0.02,,2013-02-22 19:00:00,
2013-02-22 11:52:00,33.0,-99.9,-100.00,North,-999,-999.0,-999.0,-999,-99.99,,,0.02,,2013-02-22 19:52:00,
2013-02-22 12:00:00,35.0,-99.9,-100.00,North,-999,-999.0,-999.0,-999,-99.99,,,0.00,,2013-02-22 20:00:00,
2013-02-22 12:52:00,35.0,-99.9,-100.00,North,-999,-999.0,-999.0,-999,-99.99,,,0.00,,2013-02-22 20:52:00,
2013-02-22 13:00:00,37.0,-99.9,-100.00,North,-999,-999.0,-999.0,-999,-99.99,,,-99.99,,2013-02-22 21:00:00,
2013-02-22 13:52:00,37.0,-99.9,-100.00,North,-999,-999.0,-999.0,-999,-99.99,,,-99.99,,2013-02-22 21:52:00,
2013-02-22 21:00:00,29.0,-99.9,-100.00,North,-999,-999.0,-999.0,-999,-99.99,,,-99.99,,2013-02-23 05:00:00,
2013-02-22 22:00:00,28.0,-99.9,-100.00,North,-999,-999.0,-999.0,-999,-99.99,,,0.01,,2013-02-23 06:00:00,
2013-02-22 22:52:00,28.0,-99.9,-100.00,North,-999,-999.0,-999.0,-999,-99.99,,,0.01,,2013-02-23 06:52:00,
2013-02-22 23:00:00,27.0,-99.9,-100.00,North,-999,-999.0,-999.0,-999,-99.99,,,0.01,,2013-02-23 07:00:00,
2013-02-22 23:52:00,27.0,-99.9,-100.00,North,-999,-999.0,-999.0,-999,-99.99,,,0.01,,2013-02-23 07:52:00,